Location: Hackbridge
(51.3833°N, 0.1500°W)
Time: 09:28:31
(UTC+00:00)

CZ-2C R/B - Pass Details

Date: 13 October 2019
Orbit: 641 x 704 km, 98.4° (Epoch: 21 November)

Event Time Altitude Azimuth Distance (km) Brightness Sun altitude
Rises 19:20:38 0° 18° (NNE) 2,969 7.0 -20.7°
Reaches altitude 10° 19:22:53 10° 23° (NNE) 2,059 6.1 -21.0°
Enters shadow 19:25:38 34° 43° (NE) 1,069 4.5 -21.4°
